Weather in Medyana

Russia / Nizhny Novgorod Oblast'     55°17′47″N   45°40′39″E
temp.,
°C
wind,
m/s
gust,
m/s
humid.,
%
clouds,
%
prec.,
mm/h
press.,
hPa
HPBL,
m
21 april, wed
wed2100:00+6se101747100 0.0 1020924
03:00+5se112055100 0.9 1018944
06:00+2se112391100 6.9 1016878
09:00+5se11187683 7.1 1016948
12:00+5se101880100 0.0 1015812
15:00+7sse101679100 0.0 1015983
18:00+5sse91788100 0.0 1015685
21:00+5sse91792100 0.3 1015635
22 april, thu
thu2200:00+6sw61191100 0.1 1016743
03:00+5sw41085100 0.1 1018478
06:00+5sse5990100 0.0 1019239
09:00+7sse7118694 0.1 1020586
12:00+11ssw81168100 0.7 10191399
15:00+13wsw795424 1.3 10201746
18:00+10w476432 0.0 1021517
21:00+7sw33795 0.0 102346
23 april, fri
fri2300:00+6ssw22795 0.0 102318
03:00+5sse33835 0.0 102329
06:00+6sse38826 0.0 1023162
09:00+10s586583 0.0 1023369
12:00+15s444553 0.0 10221878
15:00+14sse3448100 0.0 1021794
18:00+12se476388 0.0 1020180
21:00+10se5117497 0.0 1020268
24 april, sat
sat2400:00+8se4108772 0.3 1018242
03:00+7se379038 0.4 1017132
06:00+7ese488891 0.0 1015231
09:00+11se566840 0.0 1013653
12:00+14se555439 0.0 10111509
15:00+14se665188 0.1 10101447
18:00+12se71164100 0.0 1008612
21:00+10se71279100 0.3 1007595
25 april, sun
sun2500:00+5wsw71183100 3.9 1008849
03:00+5w71069100 3.9 10091144
06:00+4sw510858 0.0 1010568
09:00+8wsw710545 0.0 10101410
12:00+10wsw7943100 0.0 10102408
15:00+11wsw793898 0.0 10102683
18:00+10sw584692 0.0 1011733
21:00+6sw366399 0.1 1012126